Change the Weather History Date:

Thursday, March 1, 2012

  Actual Average Record
Temperature  
Mean Temperature 27 °F -  
Max Temperature 33 °F 40 °F 55 °F (2004)
Min Temperature 21 °F 23 °F -18 °F (1980)
Degree Days  
Heating Degree Days 38    
Cooling Degree Days 0    
Moisture  
Dew Point 25 °F    
Average Humidity 89    
Maximum Humidity 100    
Minimum Humidity 78    
Precipitation  
Precipitation 0.24 in 0.10 in 0.62 in (1955)
Month to date precipitation 0.10  
Year to date precipitation 5.90  
Snow  
Snow 0.00 in - - ()
Month to date snowfall  
Since 1 July snowfall  
Snow Depth 11.00 in    
Sea Level Pressure  
Sea Level Pressure 29.90 in    
Wind  
Wind Speed 10 mph (NE)    
Max Wind Speed 18 mph    
Max Gust Speed 25 mph    
Visibility 2 miles    
Events Fog , Snow    
T = Trace of Precipitation, MM = Missing Value Source: NWS Daily Summary

Daily Weather History Graph

Daily Weather History Graph

Search for Another Location

Airport or City:

Trip Planner

Search our weather history database for the weather conditions in past years. The results will help you decide how hot, cold, wet, or windy it might be!

Date:

Astronomy

Mar. 01, 2012 Rise Set
Actual Time 6:20 AM EST 5:35 PM EST
Civil Twilight 5:52 AM EST 6:04 PM EST
Nautical Twilight 5:19 AM EST 6:36 PM EST
Astronomical Twilight 4:46 AM EST 7:09 PM EST
Moon 10:46 AM EST (3/1) 1:23 AM EST (3/1)
Length of Visible Light 12h 11m
Length of Day
11h 14m
First Quarter, 56% of the Moon is Illuminated
Mar 1
First Quarter
Mar 8
Full
Mar 14
Last Quarter
Mar 22
New
Mar 30
First Quarter

Hourly Weather History & Observations

Time (EST) Temp. Windchill Dew Point Humidity Pressure Visibility Wind Dir Wind Speed Gust Speed Precip Events Conditions
12:09 AM 30.2 °F 22.6 °F 28.4 °F 93% 29.94 in 1.0 mi NE 8.1 mph - 0.00 in Snow Light Snow
12:53 AM 30.9 °F 25.2 °F 30.0 °F 96% 29.99 in 1.0 mi NNE 5.8 mph - 0.01 in Snow Light Snow
1:26 AM 32.0 °F 26.4 °F 30.2 °F 93% 29.93 in 0.8 mi NNE 5.8 mph - 0.02 in Snow Light Snow
1:53 AM 32.0 °F 26.4 °F 30.9 °F 96% 29.91 in 0.8 mi NE 5.8 mph - 0.04 in Snow Light Snow
2:15 AM 33.8 °F 27.0 °F 30.2 °F 87% 29.90 in 1.2 mi NE 8.1 mph - 0.00 in Snow Light Snow
2:29 AM 33.8 °F 25.8 °F 30.2 °F 87% 29.90 in 2.0 mi NE 10.4 mph - 0.00 in Snow Light Snow
2:38 AM 33.8 °F 24.8 °F 30.2 °F 87% 29.88 in 2.0 mi ENE 12.7 mph 21.9 mph 0.00 in Snow Light Snow
2:53 AM 33.8 °F 25.3 °F 30.2 °F 87% 29.88 in 1.0 mi ENE 11.5 mph 18.4 mph N/A Snow Light Snow
3:53 AM 32.0 °F 23.6 °F 30.0 °F 92% 29.91 in 0.8 mi ENE 10.4 mph 16.1 mph 0.04 in Snow Light Snow
4:30 AM 32.0 °F 24.2 °F 30.2 °F 93% 29.85 in 1.0 mi ENE 9.2 mph - 0.01 in Snow Light Snow
4:53 AM 32.0 °F 23.6 °F 30.0 °F 92% 29.89 in 1.0 mi ENE 10.4 mph - 0.01 in Snow Light Snow
5:08 AM 32.0 °F 24.2 °F 30.2 °F 93% 29.82 in 1.0 mi ENE 9.2 mph - 0.00 in Snow Light Snow
5:19 AM 32.0 °F 23.0 °F 30.2 °F 93% 29.82 in 1.0 mi ENE 11.5 mph 18.4 mph 0.00 in Snow Light Snow
5:31 AM 32.0 °F 24.2 °F 30.2 °F 93% 29.81 in 1.2 mi ENE 9.2 mph 18.4 mph 0.01 in Snow Light Snow
5:53 AM 32.0 °F 23.0 °F 30.0 °F 92% 29.85 in 1.0 mi ENE 11.5 mph 18.4 mph 0.01 in Snow Light Snow
6:34 AM 32.0 °F 24.8 °F 30.2 °F 93% 29.83 in 1.0 mi NE 8.1 mph 17.3 mph 0.00 in Snow Light Snow
6:37 AM 32.0 °F 24.2 °F 30.2 °F 93% 29.83 in 0.8 mi ENE 9.2 mph 17.3 mph 0.01 in Snow Light Snow
6:53 AM 32.0 °F 24.8 °F 30.2 °F 93% 29.84 in 0.5 mi ENE 8.1 mph - N/A Fog , Snow Snow
7:12 AM 30.2 °F 22.6 °F 30.2 °F 100% 29.82 in 0.5 mi NE 8.1 mph - 0.04 in Fog , Snow Snow
7:20 AM 30.2 °F 21.3 °F 30.2 °F 100% 29.82 in 0.2 mi NE 10.4 mph 19.6 mph 0.07 in Fog , Snow Heavy Snow
7:38 AM 30.2 °F 23.4 °F 30.2 °F 100% 29.83 in 0.2 mi NE 6.9 mph 17.3 mph 0.11 in Fog , Snow Heavy Snow
7:49 AM 30.2 °F 22.6 °F 30.2 °F 100% 29.82 in 0.2 mi NE 8.1 mph - 0.12 in Fog , Snow Snow
7:53 AM 30.9 °F 23.5 °F 30.0 °F 96% 29.88 in 0.2 mi ENE 8.1 mph - 0.12 in Fog , Snow Snow
8:53 AM 26.6 °F 15.7 °F 24.8 °F 93% 29.82 in 0.5 mi North 12.7 mph - N/A Fog , Snow Snow
9:12 AM 26.6 °F 15.7 °F 24.8 °F 93% 29.81 in 0.5 mi NNE 12.7 mph - 0.00 in Fog , Snow Snow
9:53 AM 27.0 °F 15.6 °F 24.1 °F 89% 29.87 in 0.5 mi North 13.8 mph - 0.00 in Fog , Snow Snow
10:53 AM 26.1 °F 16.2 °F 24.1 °F 92% 29.88 in 0.5 mi North 10.4 mph - 0.00 in Fog , Snow Snow
11:53 AM 25.0 °F 13.6 °F 21.9 °F 88% 29.88 in 0.5 mi NNE 12.7 mph - 0.00 in Fog , Snow Snow
12:53 PM 25.0 °F 12.6 °F 21.0 °F 85% 29.88 in 0.5 mi North 15.0 mph 21.9 mph 0.00 in Fog , Snow Snow
1:14 PM 24.8 °F 12.9 °F 21.2 °F 86% 29.82 in 0.5 mi NNE 13.8 mph - 0.00 in Fog , Snow Snow
1:30 PM 24.8 °F 14.0 °F 21.2 °F 86% 29.82 in 0.5 mi NNE 11.5 mph - 0.00 in Snow Light Snow
1:53 PM 25.0 °F 13.6 °F 21.0 °F 85% 29.88 in 0.8 mi NNE 12.7 mph - 0.00 in Snow Light Snow
2:53 PM 25.0 °F 11.3 °F 19.9 °F 81% 29.90 in 0.8 mi NNE 18.4 mph 25.3 mph 0.01 in Snow Light Snow
3:03 PM 24.8 °F 12.9 °F 19.4 °F 80% 29.84 in 7.0 mi NNE 13.8 mph 21.9 mph 0.00 in Snow Light Snow
3:53 PM 24.8 °F 14.6 °F 19.4 °F 80% 29.85 in 8.0 mi NNE 10.4 mph 24.2 mph N/A Snow Light Snow
4:53 PM 25.0 °F 14.8 °F 19.0 °F 78% 29.94 in 4.0 mi NNE 10.4 mph 25.3 mph 0.00 in Snow Light Snow
5:15 PM 24.8 °F 12.9 °F 19.4 °F 80% 29.89 in 2.0 mi NNE 13.8 mph - 0.00 in Snow Light Snow
5:53 PM 24.1 °F 13.1 °F 19.9 °F 84% 29.97 in 2.0 mi North 11.5 mph 19.6 mph 0.00 in Snow Light Snow
6:53 PM 23.0 °F 10.1 °F 19.9 °F 88% 30.00 in 2.0 mi North 15.0 mph 19.6 mph 0.00 in Snow Light Snow
7:53 PM 23.0 °F 10.6 °F 19.0 °F 85% 30.02 in 2.5 mi North 13.8 mph - 0.00 in Snow Light Snow
8:53 PM 21.9 °F 11.0 °F 18.0 °F 85% 30.04 in 3.0 mi North 10.4 mph - 0.00 in Snow Light Snow
9:53 PM 21.9 °F 11.7 °F 17.1 °F 82% 30.06 in 10.0 mi North 9.2 mph - 0.00 in   Overcast
10:19 PM 23.0 °F 13.9 °F 17.6 °F 80% 30.01 in 10.0 mi North 8.1 mph - N/A   Overcast
10:53 PM 21.9 °F 11.7 °F 16.0 °F 78% 30.08 in 10.0 mi North 9.2 mph - 0.00 in   Overcast
11:53 PM 21.9 °F 11.7 °F 17.1 °F 82% 30.09 in 10.0 mi North 9.2 mph - N/A   Overcast